Radiation Dose at Monitoring Post of Fukushima Daini Nuclear Power Station
Date,Time,MP-1(microSv/h),MP-2(microSv/h),MP-3(microSv/h),MP-4(microSv/h),MP-5(microSv/h),MP-6(microSv/h),MP-7(microSv/h),Wind Direction,Wind Velocity(m/s),Rain
2016/09/19,00:00,0.376,0.228,0.394,0.361,0.353,0.183,0.155,north,5.9,No
2016/09/19,00:10,0.379,0.228,0.393,0.363,0.357,0.184,0.156,north,5.8,No
2016/09/19,00:20,0.375,0.228,0.392,0.361,0.355,0.182,0.155,north,4.5,No
2016/09/19,00:30,0.377,0.226,0.396,0.360,0.354,0.183,0.155,north,2.8,No
2016/09/19,00:40,0.379,0.227,0.392,0.365,0.356,0.183,0.157,north,2.8,No
2016/09/19,00:50,0.375,0.227,0.394,0.360,0.354,0.184,0.155,north,3.3,No
2016/09/19,01:00,0.377,0.227,0.394,0.363,0.358,0.184,0.157,north,5.3,No
2016/09/19,01:10,0.378,0.229,0.393,0.363,0.354,0.184,0.157,north,5.6,No
2016/09/19,01:20,0.378,0.228,0.396,0.360,0.358,0.184,0.155,north,5.1,No
2016/09/19,01:30,0.380,0.229,0.391,0.364,0.356,0.184,0.156,north,4.9,No
2016/09/19,01:40,0.375,0.228,0.396,0.359,0.355,0.183,0.155,north,5.3,No
2016/09/19,01:50,0.379,0.228,0.395,0.362,0.357,0.184,0.157,north,5.6,Yes
2016/09/19,02:00,0.378,0.229,0.394,0.363,0.355,0.185,0.158,north,5.4,Yes
2016/09/19,02:10,0.380,0.230,0.399,0.362,0.359,0.187,0.158,north,5.9,Yes
2016/09/19,02:20,0.381,0.233,0.396,0.367,0.358,0.188,0.159,north,6.3,Yes
2016/09/19,02:30,0.380,0.232,0.398,0.364,0.358,0.188,0.159,north,6.1,Yes
2016/09/19,02:40,0.382,0.233,0.396,0.366,0.360,0.188,0.159,north,6.4,No
2016/09/19,02:50,0.379,0.232,0.397,0.366,0.358,0.187,0.158,north,7.1,No
2016/09/19,03:00,0.382,0.231,0.399,0.365,0.360,0.186,0.159,north,7.3,No
2016/09/19,03:10,0.379,0.231,0.396,0.366,0.355,0.186,0.158,north,6.7,No
2016/09/19,03:20,0.381,0.229,0.398,0.363,0.359,0.187,0.157,north,5.9,No
2016/09/19,03:30,0.379,0.230,0.395,0.365,0.356,0.186,0.157,north-northwest,5.6,Yes
2016/09/19,03:40,0.379,0.229,0.398,0.361,0.359,0.187,0.158,north,4.7,Yes
2016/09/19,03:50,0.381,0.233,0.398,0.368,0.360,0.190,0.161,north,6.7,Yes
2016/09/19,04:00,0.378,0.232,0.397,0.365,0.359,0.189,0.160,north,7.0,Yes
2016/09/19,04:10,0.381,0.231,0.397,0.365,0.361,0.190,0.161,north,6.4,Yes
2016/09/19,04:20,0.379,0.232,0.395,0.366,0.358,0.189,0.160,north,6.8,Yes
2016/09/19,04:30,0.381,0.230,0.397,0.364,0.359,0.189,0.159,north,6.7,No
2016/09/19,04:40,0.379,0.231,0.395,0.365,0.356,0.189,0.161,north-northwest,7.1,Yes
2016/09/19,04:50,0.379,0.231,0.396,0.362,0.360,0.186,0.159,north-northwest,7.9,Yes
2016/09/19,05:00,0.380,0.232,0.396,0.365,0.357,0.189,0.160,north-northwest,7.8,Yes
2016/09/19,05:10,0.381,0.231,0.396,0.364,0.358,0.188,0.158,north-northwest,7.4,Yes
2016/09/19,05:20,0.382,0.233,0.399,0.364,0.358,0.187,0.159,north-northwest,8.0,Yes
2016/09/19,05:30,0.379,0.230,0.395,0.365,0.358,0.188,0.158,north-northwest,7.9,No
2016/09/19,05:40,0.381,0.230,0.398,0.363,0.359,0.187,0.159,north,7.8,No
2016/09/19,05:50,0.378,0.230,0.395,0.365,0.356,0.188,0.158,north-northwest,7.0,No
2016/09/19,06:00,0.380,0.229,0.397,0.361,0.358,0.185,0.157,north,7.8,No
2016/09/19,06:10,0.377,0.230,0.394,0.363,0.356,0.186,0.157,north,7.1,No
2016/09/19,06:20,0.379,0.228,0.395,0.359,0.356,0.185,0.156,north,6.1,No
2016/09/19,06:30,0.379,0.230,0.396,0.363,0.355,0.184,0.157,north,5.4,Yes
2016/09/19,06:40,0.376,0.227,0.391,0.362,0.358,0.184,0.156,north,5.7,No
2016/09/19,06:50,0.379,0.228,0.395,0.360,0.355,0.184,0.157,north,5.3,No
2016/09/19,07:00,0.374,0.229,0.392,0.363,0.356,0.185,0.157,north,5.4,No
2016/09/19,07:10,0.379,0.228,0.395,0.360,0.356,0.185,0.157,north,5.3,No
2016/09/19,07:20,0.377,0.229,0.395,0.362,0.353,0.184,0.156,north,6.0,No
2016/09/19,07:30,0.379,0.228,0.393,0.362,0.357,0.186,0.156,north,5.9,Yes
2016/09/19,07:40,0.380,0.230,0.397,0.364,0.356,0.186,0.159,north,4.8,Yes
2016/09/19,07:50,0.379,0.233,0.395,0.365,0.360,0.189,0.160,north,6.2,Yes
2016/09/19,08:00,0.381,0.232,0.400,0.366,0.359,0.188,0.162,north,6.9,No
2016/09/19,08:10,0.379,0.231,0.397,0.366,0.359,0.188,0.160,north,7.0,No
2016/09/19,08:20,0.381,0.231,0.398,0.363,0.359,0.188,0.160,north,6.6,No
2016/09/19,08:30,0.380,0.234,0.398,0.366,0.358,0.188,0.160,north-northwest,6.3,No
2016/09/19,08:40,0.381,0.231,0.396,0.364,0.359,0.190,0.159,north-northwest,6.2,Yes
2016/09/19,08:50,0.381,0.233,0.400,0.365,0.357,0.188,0.159,north,5.4,No
2016/09/19,09:00,0.381,0.232,0.394,0.364,0.361,0.188,0.158,north,6.4,No
2016/09/19,09:10,0.383,0.232,0.398,0.364,0.357,0.188,0.159,north,5.0,No
2016/09/19,09:20,0.377,0.231,0.394,0.365,0.359,0.187,0.159,north,5.6,No
2016/09/19,09:30,0.382,0.228,0.396,0.361,0.357,0.186,0.157,north,4.7,No
2016/09/19,09:40,0.377,0.232,0.397,0.364,0.356,0.186,0.158,north,4.2,No
2016/09/19,09:50,0.378,0.230,0.392,0.363,0.358,0.186,0.158,north,4.0,No
2016/09/19,10:00,0.379,0.229,0.398,0.362,0.354,0.186,0.157,north,3.8,No
2016/09/19,10:10,0.378,0.230,0.395,0.364,0.358,0.185,0.157,north,4.4,Yes
2016/09/19,10:20,0.380,0.228,0.394,0.360,0.356,0.184,0.158,north,5.2,Yes
2016/09/19,10:30,0.377,0.230,0.397,0.364,0.355,0.186,0.159,north,5.3,Yes
2016/09/19,10:40,0.380,0.230,0.394,0.363,0.359,0.185,0.158,north-northwest,5.1,Yes
2016/09/19,10:50,0.381,0.229,0.397,0.361,0.355,0.186,0.156,north,4.2,Yes
2016/09/19,11:00,0.376,0.231,0.396,0.365,0.357,0.185,0.158,north-northwest,3.6,Yes
2016/09/19,11:10,0.380,0.228,0.394,0.361,0.357,0.187,0.157,north,4.7,Yes
2016/09/19,11:20,0.378,0.230,0.396,0.363,0.355,0.185,0.158,north,5.0,Yes
2016/09/19,11:30,0.380,0.230,0.393,0.363,0.358,0.186,0.158,north,4.1,No
2016/09/19,11:40,0.378,0.228,0.397,0.361,0.354,0.185,0.156,north,4.5,No
2016/09/19,11:50,0.377,0.229,0.395,0.364,0.357,0.185,0.156,north,4.3,No
2016/09/19,12:00,0.378,0.228,0.394,0.362,0.355,0.186,0.156,north,4.0,No
2016/09/19,12:10,0.374,0.229,0.396,0.361,0.352,0.184,0.157,north-northwest,4.8,Yes
2016/09/19,12:20,0.378,0.230,0.395,0.363,0.357,0.184,0.157,west,1.4,No
2016/09/19,12:30,0.378,0.228,0.393,0.359,0.354,0.185,0.156,north,4.1,No
2016/09/19,12:40,0.375,0.229,0.397,0.363,0.356,0.184,0.156,north,3.9,No
2016/09/19,12:50,0.379,0.228,0.392,0.362,0.357,0.184,0.157,north,4.1,No
2016/09/19,13:00,0.376,0.227,0.396,0.359,0.354,0.184,0.155,north,3.9,No
2016/09/19,13:10,0.376,0.227,0.395,0.363,0.353,0.183,0.156,north-northwest,4.4,No
2016/09/19,13:20,0.379,0.228,0.392,0.362,0.357,0.183,0.156,north-northwest,3.7,Yes
2016/09/19,13:30,0.377,0.226,0.395,0.360,0.353,0.185,0.156,north-northwest,5.0,Yes
2016/09/19,13:40,0.377,0.229,0.396,0.364,0.355,0.184,0.156,north-northwest,4.8,Yes
2016/09/19,13:50,0.380,0.229,0.391,0.362,0.356,0.185,0.157,north,5.1,No
2016/09/19,14:00,0.377,0.228,0.397,0.362,0.355,0.184,0.156,north-northwest,4.7,No
2016/09/19,14:10,0.379,0.230,0.396,0.364,0.356,0.184,0.156,north-northwest,4.0,Yes
2016/09/19,14:20,0.378,0.227,0.395,0.361,0.356,0.185,0.157,north,4.5,No
2016/09/19,14:30,0.378,0.228,0.397,0.364,0.354,0.185,0.155,north,3.1,Yes
2016/09/19,14:40,0.379,0.231,0.392,0.365,0.358,0.185,0.157,north,5.0,Yes
2016/09/19,14:50,0.377,0.228,0.397,0.362,0.355,0.185,0.158,north,4.4,Yes
2016/09/19,15:00,0.381,0.230,0.397,0.366,0.357,0.186,0.156,north,4.7,Yes
2016/09/19,15:10,0.378,0.230,0.395,0.362,0.358,0.185,0.159,north,5.0,Yes
2016/09/19,15:20,0.378,0.228,0.397,0.363,0.355,0.187,0.158,north,5.0,No
2016/09/19,15:30,0.381,0.230,0.394,0.364,0.358,0.185,0.157,north,4.5,Yes
2016/09/19,15:40,0.377,0.228,0.397,0.361,0.354,0.186,0.157,north,4.1,Yes
2016/09/19,15:50,0.381,0.231,0.395,0.366,0.357,0.185,0.156,north-northeast,4.2,Yes
2016/09/19,16:00,0.379,0.229,0.393,0.363,0.355,0.185,0.158,north-northeast,3.5,No
2016/09/19,16:10,0.376,0.228,0.397,0.362,0.355,0.185,0.156,north-northeast,3.9,No
2016/09/19,16:20,0.380,0.230,0.395,0.364,0.358,0.185,0.156,north-northeast,5.3,No
2016/09/19,16:30,0.375,0.228,0.396,0.360,0.355,0.185,0.158,north,4.4,No
2016/09/19,16:40,0.377,0.228,0.397,0.364,0.355,0.185,0.155,north,4.2,No
2016/09/19,16:50,0.380,0.228,0.394,0.362,0.357,0.184,0.157,north,4.8,Yes
2016/09/19,17:00,0.375,0.228,0.397,0.363,0.355,0.186,0.157,north-northeast,3.6,Yes
2016/09/19,17:10,0.380,0.229,0.396,0.365,0.357,0.186,0.158,north,2.8,No
2016/09/19,17:20,0.378,0.228,0.394,0.360,0.355,0.186,0.159,north,2.9,No
2016/09/19,17:30,0.379,0.229,0.396,0.364,0.357,0.187,0.156,north-northeast,5.3,No
2016/09/19,17:40,0.380,0.229,0.394,0.363,0.355,0.185,0.157,northeast,5.9,No
2016/09/19,17:50,0.376,0.229,0.398,0.362,0.356,0.187,0.156,northeast,6.6,No
2016/09/19,18:00,0.380,0.229,0.395,0.362,0.357,0.184,0.157,northeast,6.0,No
2016/09/19,18:10,0.378,0.227,0.395,0.361,0.353,0.184,0.156,northeast,5.9,No
2016/09/19,18:20,0.379,0.228,0.396,0.363,0.357,0.185,0.156,northeast,4.6,No
2016/09/19,18:30,0.380,0.229,0.392,0.362,0.354,0.184,0.156,northeast,5.0,No
2016/09/19,18:40,0.377,0.227,0.397,0.362,0.354,0.185,0.156,north-northeast,5.1,No
2016/09/19,18:50,0.379,0.229,0.395,0.364,0.356,0.184,0.156,north-northeast,4.6,No
2016/09/19,19:00,0.377,0.227,0.395,0.361,0.355,0.184,0.154,north,3.2,No
2016/09/19,19:10,0.380,0.229,0.395,0.364,0.357,0.184,0.155,north-northeast,3.9,No
2016/09/19,19:20,0.380,0.228,0.392,0.362,0.354,0.185,0.156,north-northeast,3.2,No
2016/09/19,19:30,0.378,0.226,0.398,0.361,0.356,0.185,0.156,northeast,3.8,No
2016/09/19,19:40,0.380,0.229,0.395,0.363,0.354,0.183,0.156,north-northeast,3.9,No
2016/09/19,19:50,0.378,0.228,0.395,0.362,0.353,0.185,0.156,north,4.8,No
2016/09/19,20:00,0.379,0.228,0.397,0.364,0.356,0.183,0.155,north,5.8,No
2016/09/19,20:10,0.379,0.229,0.395,0.362,0.353,0.184,0.157,north,4.4,No
2016/09/19,20:20,0.376,0.227,0.397,0.363,0.357,0.185,0.156,north,4.7,No
2016/09/19,20:30,0.381,0.229,0.395,0.363,0.355,0.184,0.157,north,4.1,Yes
2016/09/19,20:40,0.379,0.227,0.396,0.363,0.354,0.185,0.157,north,4.8,No
2016/09/19,20:50,0.379,0.229,0.396,0.366,0.357,0.184,0.155,north,5.3,Yes
2016/09/19,21:00,0.380,0.229,0.394,0.362,0.354,0.184,0.157,north,5.6,Yes
2016/09/19,21:10,0.377,0.229,0.397,0.364,0.357,0.184,0.156,north,5.2,Yes
2016/09/19,21:20,0.382,0.230,0.395,0.365,0.355,0.184,0.158,north,4.9,Yes
2016/09/19,21:30,0.378,0.228,0.397,0.362,0.357,0.187,0.157,north,5.2,Yes
2016/09/19,21:40,0.381,0.232,0.396,0.365,0.357,0.186,0.158,north,5.3,Yes
2016/09/19,21:50,0.380,0.230,0.396,0.362,0.355,0.186,0.159,north,5.5,Yes
2016/09/19,22:00,0.380,0.232,0.398,0.367,0.359,0.187,0.158,north,5.8,Yes
2016/09/19,22:10,0.381,0.231,0.395,0.364,0.356,0.187,0.159,north,5.8,Yes
2016/09/19,22:20,0.379,0.231,0.401,0.364,0.359,0.188,0.159,north,6.6,Yes
2016/09/19,22:30,0.380,0.232,0.396,0.363,0.356,0.187,0.159,north,6.7,Yes
2016/09/19,22:40,0.379,0.230,0.399,0.362,0.358,0.187,0.159,north,6.3,Yes
2016/09/19,22:50,0.381,0.232,0.397,0.365,0.357,0.188,0.159,north,6.7,Yes
2016/09/19,23:00,0.379,0.231,0.397,0.362,0.357,0.189,0.160,north,7.3,Yes
2016/09/19,23:10,0.381,0.232,0.397,0.364,0.355,0.190,0.160,north,6.8,Yes
2016/09/19,23:20,0.379,0.231,0.393,0.363,0.356,0.187,0.161,north,5.9,Yes
2016/09/19,23:30,0.380,0.232,0.396,0.363,0.359,0.189,0.159,north,4.6,Yes
2016/09/19,23:40,0.379,0.233,0.393,0.363,0.358,0.189,0.161,north,6.5,Yes
2016/09/19,23:50,0.378,0.233,0.394,0.361,0.361,0.190,0.161,north-northeast,6.7,Yes
